sat.trackr.live / text

‹ back to catalog

STARLINK-11585 [DTC]

NORAD 63309 · 2025-057C

PAYLOAD ACTIVE UNKNOWN

§ Identity

Operator
Country
US
Launch date
2025-03-18
Launch site
AFETR
Launch vehicle
Mass (kg)
RCS (m²)

Purposes: comms

External: N2YO · Heavens-Above · Gunter

§ Orbital elements

Epoch: 2026-09-20T21:58:36.165504Z

Period
91.67 min
Inclination
43.0006°
Eccentricity
0.0001700
Mean motion
15.70823845 rev/d
Perigee alt
355.4 km
Apogee alt
357.7 km
Semi-major
6,734.7 km
B*
8.4622e-4
RAAN
167.5886°
Arg perigee
246.4617°
Mean anomaly
113.6072°
Rev number
8,791

§ Raw data

STARLINK-11585 [DTC]1 63309U 25057C   26263.91569636  .00109501  00000+0  84622-3 0  99942 63309  43.0006 167.5886 0001700 246.4617 113.6072 15.70823845 87913

JSON: /api/v1/satellites/63309 · /tle

For live sub-satellite position, see the globe view (requires WebGL).

§ Visibility from observer

Set your observer location to see the next 7 days of passes ≥ 10°. The values pass through the URL so the page stays shareable.

No JS? Fill the form by hand. The geolocation button needs JavaScript.